Timestamp[UTC];2m Lufttemperatur [degC] (tas);Stations-Luftdruck [Pa] (ps);relative Luftfeuchtigkeit [%] (hurs);spezifische Luftfeuchtigkeit [kg/kg] (huss);Niederschlagsmenge [mm] (pr);Windgeschwindigkeit in 2m [m/s] (sfcWind);Windrichtung [deg];maximale Windgeschwindigkeit [m/s] (wsgsmax);u-Windkomponente [m/s] (uas);v-Windkomponente [m/s] (vas);Sonneneinstrahlung [W/m2];Blitzrate [n];Blitzentfernung [km];Bodenfeuchte in 5cm Tiefe [vol%];Bodenfeuchte in 15cm Tiefe [vol%];Bodenfeuchte in 30cm Tiefe [vol%];Bodenfeuchte in 60cm Tiefe [vol%];Bodentemperatur in 5cm Tiefe [degC];Bodentemperatur in 15cm Tiefe [degC];Bodentemperatur in 30cm Tiefe [degC];Bodentemperatur in 60cm Tiefe [degC];Matrixpotential in 30cm Tiefe [kPa];Bodenfeuchte aus CRNS [vol%] (mrso);Neutronen Anzahl [N/h]
2023-04-01 00:00:00;9,4;98930;95;0,007;0,92;3,1;188;7,1;-0,44;-3,03;0;0;nan;27,8;27,3;28,0;26,2;10,3;10,2;9,7;8,7;-11,7;36,8;1279
2023-04-01 01:00:00;9,2;98910;96;0,007;1,5;3,1;189;7,1;-0,5;-3,01;0;0;nan;28,1;27,4;28,1;26,2;10,2;10,1;9,7;8,7;-11,7;37,2;1275
2023-04-01 02:00:00;9,1;98900;96;0,007;0,9;2,8;185;6,6;-0,23;-2,76;0;0;nan;28,7;27,7;28,3;26,2;10,1;10,0;9,7;8,7;-11,7;37,0;1277
2023-04-01 03:00:00;9,1;98930;96;0,007;1,65;2,2;192;4,6;-0,46;-2,15;0;0;nan;29,3;28,1;28,5;26,2;10,0;10,0;9,7;8,8;-11,7;37,4;1273
2023-04-01 04:00:00;9,0;98955;98;0,0071;1,52;2,0;192;4,4;-0,43;-1,98;0;0;nan;30,5;28,7;28,8;26,2;9,9;9,9;9,6;8,8;-11,6;37,6;1272
2023-04-01 05:00:00;9,2;98985;97;0,0071;0,96;1,8;189;4,6;-0,29;-1,82;7;0;nan;30,7;29,3;29,2;26,2;9,8;9,8;9,6;8,8;-11,6;37,2;1275
2023-04-01 06:00:00;9,1;99002;98;0,0071;1,07;1,9;190;5,6;-0,33;-1,87;18;0;nan;30,7;29,5;29,7;26,2;9,8;9,8;9,6;8,8;-11,5;37,7;1270
2023-04-01 07:00:00;9,2;99042;98;0,0072;0,72;1,8;190;3,9;-0,33;-1,77;52;0;nan;30,8;29,7;30,1;26,2;9,8;9,7;9,6;8,8;-11,5;37,6;1271
2023-04-01 08:00:00;9,3;99106;100;0,0074;1,71;1,7;198;4,8;-0,51;-1,59;79;0;nan;30,8;29,8;30,5;26,2;9,8;9,7;9,5;8,8;-11,4;37,8;1270
2023-04-01 09:00:00;9,6;99162;100;0,0075;0,66;1,7;229;5,0;-1,27;-1,12;97;0;nan;30,9;30,0;30,8;26,3;9,9;9,7;9,5;8,8;-11,4;37,9;1269
2023-04-01 10:00:00;9,9;99215;100;0,0077;1,44;1,6;247;4,5;-1,48;-0,62;166;0;nan;30,8;30,0;31,1;26,3;10,0;9,7;9,5;8,8;-11,4;38,0;1268
2023-04-01 11:00:00;10,1;99278;100;0,0078;1,93;1,3;226;3,0;-0,96;-0,92;134;0;nan;31,1;30,2;31,3;26,3;10,2;9,8;9,5;8,8;-11,3;38,4;1264
2023-04-01 12:00:00;10,3;99350;99;0,0078;0,28;1,5;236;4,0;-1,24;-0,84;116;0;nan;31,2;30,4;31,5;26,3;10,4;9,9;9,5;8,8;-11,3;38,7;1262
2023-04-01 13:00:00;10,3;99412;99;0,0078;0,37;1,8;240;4,9;-1,54;-0,88;84;0;nan;31,0;30,4;31,7;26,4;10,6;10,0;9,5;8,8;-11,3;38,4;1265
2023-04-01 14:00:00;10,2;99490;98;0,0077;1,18;1,5;252;4,7;-1,45;-0,48;74;0;nan;30,7;30,2;31,7;26,4;10,7;10,1;9,5;8,8;-11,3;38,3;1266
2023-04-01 15:00:00;10,2;99552;99;0,0077;4,73;1,2;257;3,4;-1,12;-0,25;59;0;nan;31,2;30,4;31,7;26,5;10,8;10,2;9,6;8,8;-11,3;38,4;1265
2023-04-01 16:00:00;10,3;99643;98;0,0077;2,09;0,9;288;2,0;-0,88;0,29;16;0;nan;31,7;30,8;32,0;26,5;10,8;10,2;9,6;8,9;-11,3;38,5;1264
2023-04-01 17:00:00;10,3;99710;98;0,0076;2,83;1,4;316;3,2;-0,95;0,97;9;0;nan;32,4;31,3;32,4;26,6;10,7;10,3;9,7;8,9;-11,2;38,3;1265
2023-04-01 18:00:00;10,1;99858;97;0,0075;0,25;2,0;9;5,9;0,29;1,85;0;0;nan;32,3;31,5;32,7;26,8;10,7;10,3;9,7;8,9;-11,2;37,8;1270
2023-04-01 19:00:00;9,3;100003;96;0,007;0,09;2,1;37;6,5;1,26;1,69;0;0;nan;31,6;31,2;32,6;26,9;10,6;10,3;9,8;8,9;-11,2;37,5;1272
2023-04-01 20:00:00;8,5;100145;95;0,0066;0,0;2,3;36;6,6;1,33;1,82;0;0;nan;31,0;30,8;32,4;27,1;10,5;10,3;9,8;8,9;-11,2;37,6;1271
2023-04-01 21:00:00;7,8;100287;95;0,0062;0,0;2,9;41;8,3;1,9;2,15;0;0;nan;30,6;30,5;32,2;27,4;10,3;10,2;9,8;8,9;-11,2;37,5;1273
2023-04-01 22:00:00;7,2;100407;94;0,0059;0,0;3,2;42;8,3;2,12;2,37;0;0;nan;30,2;30,3;32,0;27,6;10,1;10,2;9,8;8,9;-11,2;36,8;1279
2023-04-01 23:00:00;6,7;100520;94;0,0057;0,0;3,3;49;8,6;2,5;2,19;0;0;nan;29,8;30,0;31,8;27,7;9,9;10,1;9,8;8,9;-11,2;36,5;1281
2023-04-02 00:00:00;6,2;100630;94;0,0055;0,0;2,8;47;6,8;2,02;1,88;0;0;nan;29,6;29,8;31,6;27,8;9,7;9,9;9,8;9,0;-11,2;36,0;1286
2023-04-02 01:00:00;5,7;100755;93;0,0053;0,0;3,2;52;7,6;2,52;1,96;0;0;nan;29,3;29,6;31,4;27,8;9,5;9,8;9,7;9,0;-11,2;35,6;1289
2023-04-02 02:00:00;5,2;100893;93;0,0051;0,0;3,0;53;8,1;2,38;1,82;0;0;nan;29,1;29,4;31,2;27,9;9,3;9,7;9,7;9,0;-11,2;35,3;1292
2023-04-02 03:00:00;4,7;100993;93;0,0049;0,0;3,1;47;7,8;2,23;2,1;0;0;nan;28,9;29,2;31,1;27,9;9,1;9,5;9,6;9,0;-11,2;34,8;1297
2023-04-02 04:00:00;4,1;101124;94;0,0047;0,0;2,7;42;6,9;1,8;1,97;0;0;nan;28,7;29,0;30,9;27,9;8,9;9,4;9,6;9,0;-11,2;34,7;1299
2023-04-02 05:00:00;3,6;101287;93;0,0045;0,0;2,8;49;7,1;2,14;1,84;4;0;nan;28,6;28,9;30,8;27,9;8,7;9,2;9,5;9,0;-11,2;34,6;1299
2023-04-02 06:00:00;3,4;101393;92;0,0044;0,0;2,4;45;6,3;1,69;1,7;20;0;nan;28,4;28,7;30,6;27,9;8,4;9,1;9,4;9,0;-11,2;34,1;1304
2023-04-02 07:00:00;3,3;101520;91;0,0043;0,0;3,1;49;8,3;2,31;2,04;60;0;nan;28,3;28,6;30,5;27,9;8,3;8,9;9,3;9,0;-11,2;34,0;1305
2023-04-02 08:00:00;3,5;101627;90;0,0043;0,0;3,4;57;7,1;2,86;1,88;124;0;nan;28,1;28,5;30,4;27,9;8,1;8,8;9,3;9,0;-11,2;33,5;1311
2023-04-02 09:00:00;3,7;101713;89;0,0043;0,0;2,9;46;6,9;2,09;2,04;148;0;nan;28,0;28,4;30,3;27,8;8,1;8,6;9,2;9,0;-11,2;33,0;1316
2023-04-02 10:00:00;4,1;101818;87;0,0043;0,0;3,3;51;7,7;2,53;2,04;196;0;nan;27,9;28,3;30,2;27,8;8,1;8,6;9,1;9,0;-11,2;32,4;1322
2023-04-02 11:00:00;4,6;101910;84;0,0044;0,0;2,8;46;6,7;1,99;1,91;243;0;nan;27,8;28,2;30,1;27,8;8,2;8,5;9,0;9,0;-11,3;32,3;1323
2023-04-02 12:00:00;5,3;101960;80;0,0043;0,0;3,2;60;7,7;2,71;1,55;364;0;nan;27,6;28,0;29,9;27,8;8,3;8,5;9,0;9,0;-11,2;31,9;1327
2023-04-02 13:00:00;7,2;101977;74;0,0046;0,0;3,7;67;7,6;3,21;1,36;510;0;nan;27,5;27,9;29,8;27,8;8,7;8,6;8,9;8,9;-11,3;31,8;1329
2023-04-02 14:00:00;7,4;102063;71;0,0045;0,0;2,8;54;6,1;2,2;1,6;374;0;nan;27,3;27,8;29,7;27,7;9,1;8,7;8,9;8,9;-11,3;31,5;1331
2023-04-02 15:00:00;7,8;102103;68;0,0044;0,0;3,4;66;7,3;3,09;1,4;364;0;nan;27,2;27,7;29,6;27,7;9,5;8,9;8,9;8,9;-11,3;31,0;1338
2023-04-02 16:00:00;7,5;102168;67;0,0042;0,0;2,9;67;6,4;2,64;1,1;225;0;nan;27,0;27,6;29,5;27,7;9,6;9,1;8,9;8,9;-11,3;30,7;1341
2023-04-02 17:00:00;6,9;102253;67;0,004;0,0;2,1;88;4,9;2,07;0,09;48;0;nan;26,9;27,5;29,5;27,7;9,6;9,2;9,0;8,9;-11,3;30,5;1343
2023-04-02 18:00:00;5,7;102310;70;0,0039;0,0;0,8;68;2,0;0,44;0,18;4;0;nan;26,8;27,4;29,4;27,7;9,3;9,3;9,0;8,9;-11,3;30,8;1340
2023-04-02 19:00:00;3,0;102405;82;0,0038;0,0;0,5;302;0,9;-0,42;0,26;0;0;nan;26,7;27,3;29,3;27,6;8,9;9,2;9,0;8,8;-11,3;30,6;1342
2023-04-02 20:00:00;1,6;102483;89;0,0037;0,0;0,7;309;1,3;-0,5;0,4;0;0;nan;26,6;27,2;29,2;27,6;8,5;9,0;9,0;8,8;-11,3;30,7;1341
2023-04-02 21:00:00;0,7;102540;91;0,0036;0,0;0,7;281;1,2;-0,64;0,13;0;0;nan;26,6;27,2;29,1;27,6;8,1;8,8;9,0;8,8;-11,3;30,3;1345
2023-04-02 22:00:00;0,2;102590;93;0,0035;0,0;0,6;297;1,2;-0,54;0,28;0;0;nan;26,5;27,1;29,0;27,6;7,7;8,6;9,0;8,8;-11,3;30,2;1347
2023-04-02 23:00:00;-0,4;102647;93;0,0034;0,0;0,6;319;0,9;-0,36;0,42;0;0;nan;26,4;27,0;29,0;27,5;7,4;8,3;8,9;8,8;-11,4;29,9;1351
2023-04-03 00:00:00;0,8;102682;88;0,0034;0,0;0,8;73;1,8;0,6;0,18;0;0;nan;26,4;27,0;28,9;27,5;7,0;8,1;8,8;8,8;-11,4;29,9;1350
2023-04-03 01:00:00;2,3;102692;87;0,0038;0,0;1,3;68;2,5;1,21;0,49;0;0;nan;26,3;26,9;28,8;27,5;6,7;7,9;8,7;8,8;-11,4;29,8;1351
2023-04-03 02:00:00;1,9;102710;84;0,0036;0,0;1,5;74;3,2;1,41;0,4;0;0;nan;26,3;26,8;28,8;27,5;6,4;7,6;8,6;8,8;-11,4;30,1;1348
2023-04-03 03:00:00;1,4;102720;85;0,0035;0,0;1,5;71;3,0;1,4;0,47;0;0;nan;26,2;26,8;28,7;27,4;6,2;7,4;8,5;8,8;-11,4;30,3;1345
2023-04-03 04:00:00;0,8;102748;86;0,0034;0,0;1,5;82;3,2;1,44;0,22;0;0;nan;26,2;26,7;28,6;27,4;6,0;7,2;8,4;8,8;-11,4;30,3;1346
2023-04-03 05:00:00;0,7;102798;86;0,0034;0,0;1,8;52;3,8;1,4;1,08;18;0;nan;26,2;26,7;28,6;27,4;5,7;7,0;8,2;8,8;-11,4;30,3;1345
2023-04-03 06:00:00;1,2;102815;89;0,0036;0,0;2,6;63;5,5;2,3;1,16;139;0;nan;26,1;26,7;28,5;27,4;5,5;6,8;8,1;8,7;-11,4;30,4;1344
2023-04-03 07:00:00;2,2;102822;86;0,0037;0,0;3,2;60;6,5;2,75;1,57;282;0;nan;26,1;26,6;28,5;27,4;5,4;6,6;8,0;8,7;-11,4;30,2;1347
2023-04-03 08:00:00;3,8;102830;74;0,0036;0,0;3,5;65;7,6;3,17;1,48;436;0;nan;26,0;26,6;28,4;27,3;5,4;6,5;7,9;8,7;-11,4;29,8;1351
2023-04-03 09:00:00;4,9;102843;65;0,0034;0,0;3,9;77;7,7;3,77;0,88;531;0;nan;25,9;26,5;28,4;27,3;5,7;6,4;7,8;8,6;-11,4;29,9;1350
2023-04-03 10:00:00;6,2;102825;57;0,0033;0,0;4,6;82;10,0;4,43;0,63;615;0;nan;25,8;26,5;28,3;27,3;6,2;6,5;7,7;8,6;-11,5;30,0;1349
2023-04-03 11:00:00;6,6;102762;54;0,0032;0,0;4,8;93;9,9;4,82;-0,25;654;0;nan;25,7;26,4;28,3;27,3;7,0;6,8;7,6;8,6;-11,4;29,8;1351
2023-04-03 12:00:00;7,3;102733;52;0,0032;0,0;4,6;68;9,0;4,26;1,71;644;0;nan;25,6;26,3;28,2;27,3;7,8;7,1;7,6;8,5;-11,5;30,1;1348
2023-04-03 13:00:00;7,6;102670;52;0,0033;0,0;4,6;75;9,7;4,4;1,14;588;0;nan;25,4;26,2;28,2;27,3;8,6;7,6;7,7;8,5;-11,5;30,1;1348
2023-04-03 14:00:00;7,8;102622;52;0,0033;0,0;4,2;79;9,2;4,14;0,79;497;0;nan;25,3;26,2;28,1;27,2;9,2;8,0;7,8;8,5;-11,5;30,0;1349
2023-04-03 15:00:00;7,7;102603;52;0,0033;0,0;4,1;74;8,5;3,91;1,12;373;0;nan;25,2;26,1;28,1;27,2;9,5;8,4;7,9;8,4;-11,5;30,1;1349
2023-04-03 16:00:00;7,3;102617;52;0,0032;0,0;3,6;74;7,5;3,44;0,99;215;0;nan;25,1;26,0;28,0;27,2;9,7;8,7;8,1;8,4;-11,5;29,9;1350
2023-04-03 17:00:00;6,8;102610;51;0,0031;0,0;3,1;78;7,9;3,05;0,66;53;0;nan;25,0;25,9;27,9;27,2;9,5;8,9;8,2;8,4;-11,5;30,0;1349
2023-04-03 18:00:00;5,5;102627;55;0,003;0,0;1,5;69;3,8;1,36;0,51;3;0;nan;25,0;25,9;27,9;27,2;9,2;8,9;8,4;8,4;-11,5;29,6;1355
2023-04-03 19:00:00;3,2;102652;65;0,003;0,0;0,5;356;1,2;-0,03;0,47;0;0;nan;24,9;25,8;27,8;27,2;8,7;8,8;8,4;8,4;-11,5;29,5;1356
2023-04-03 20:00:00;1,8;102660;72;0,003;0,0;0,4;327;0,7;-0,22;0,34;0;0;nan;24,9;25,8;27,8;27,2;8,2;8,7;8,5;8,4;-11,5;29,1;1361
2023-04-03 21:00:00;0,4;102653;79;0,003;0,0;0,5;314;0,8;-0,35;0,34;0;0;nan;24,8;25,7;27,7;27,1;7,7;8,4;8,5;8,4;-11,5;28,9;1362
2023-04-03 22:00:00;-0,5;102658;84;0,003;0,0;0,5;324;0,7;-0,29;0,4;0;0;nan;24,8;25,7;27,7;27,1;7,3;8,2;8,4;8,4;-11,6;29,3;1358
2023-04-03 23:00:00;-1,2;102650;85;0,0029;0,0;0,3;316;0,6;-0,24;0,25;0;0;nan;24,7;25,6;27,6;27,1;6,9;7,9;8,4;8,4;-11,5;29,4;1356
2023-04-04 00:00:00;-1,7;102657;87;0,0028;0,0;0,3;301;0,5;-0,28;0,17;0;0;nan;24,7;25,6;27,6;27,1;6,4;7,6;8,3;8,4;-11,6;29,3;1358
2023-04-04 01:00:00;-2,1;102652;88;0,0028;0,0;0,4;303;0,7;-0,33;0,22;0;0;nan;24,7;25,5;27,5;27,1;6,1;7,4;8,2;8,4;-11,6;29,1;1360
2023-04-04 02:00:00;-2,7;102647;89;0,0027;0,0;0,4;296;0,6;-0,33;0,16;0;0;nan;24,7;25,5;27,5;27,1;5,7;7,1;8,1;8,4;-11,6;28,8;1364
2023-04-04 03:00:00;-2,8;102627;89;0,0027;0,0;0,4;289;0,7;-0,41;0,14;0;0;nan;24,6;25,5;27,5;27,1;5,3;6,8;8,0;8,4;-11,6;28,5;1368
2023-04-04 04:00:00;-3,0;102605;90;0,0027;0,0;0,4;308;0,6;-0,34;0,26;0;0;nan;24,6;25,4;27,4;27,0;5,0;6,5;7,8;8,4;-11,6;28,7;1366
2023-04-04 05:00:00;-3,3;102610;93;0,0027;0,0;0,4;308;0,6;-0,31;0,25;20;0;nan;24,6;25,4;27,4;27,0;4,7;6,3;7,7;8,4;-11,6;28,3;1371
2023-04-04 06:00:00;-1,1;102623;99;0,0034;0,0;0,4;260;1,0;-0,15;-0,03;134;0;nan;24,5;25,4;27,3;27,0;4,4;6,0;7,5;8,4;-11,6;28,1;1374
2023-04-04 07:00:00;2,0;102592;88;0,0038;0,0;1,8;87;3,1;1,71;0,09;272;0;nan;24,5;25,3;27,3;27,0;4,3;5,8;7,4;8,3;-11,7;27,8;1377
2023-04-04 08:00:00;4,4;102577;73;0,0037;0,0;1,6;79;3,4;1,51;0,29;427;0;nan;24,5;25,3;27,3;27,0;4,4;5,6;7,2;8,3;-11,7;27,9;1376
2023-04-04 09:00:00;5,3;102560;62;0,0033;0,0;2,2;89;4,6;2,21;0,02;525;0;nan;24,4;25,3;27,2;27,0;4,9;5,6;7,1;8,3;-11,7;28,0;1374
2023-04-04 10:00:00;6,2;102512;60;0,0034;0,0;2,3;92;4,6;2,07;-0,06;616;0;nan;24,3;25,2;27,2;27,0;5,6;5,8;7,0;8,2;-11,7;28,0;1375
2023-04-04 11:00:00;7,0;102467;56;0,0034;0,0;2,4;102;5,5;2,33;-0,51;657;0;nan;24,2;25,2;27,1;27,0;6,7;6,1;6,9;8,2;-11,7;27,7;1379
2023-04-04 12:00:00;7,7;102417;53;0,0034;0,0;2,2;87;5,3;2,11;0,09;632;0;nan;24,1;25,1;27,1;27,0;7,8;6,6;7,0;8,2;-11,7;27,6;1380
2023-04-04 13:00:00;8,3;102305;50;0,0034;0,0;1,8;91;4,5;1,32;-0,03;582;0;nan;24,0;25,1;27,1;26,9;8,8;7,2;7,1;8,1;-11,7;27,5;1381
2023-04-04 14:00:00;8,6;102240;50;0,0034;0,0;1,6;57;3,9;1,18;0,76;403;0;nan;23,9;25,0;27,0;26,9;9,6;7,8;7,2;8,1;-11,8;27,5;1382
2023-04-04 15:00:00;8,6;102207;49;0,0033;0,0;1,7;51;4,0;1,07;0,85;260;0;nan;23,8;24,9;27,0;26,9;10,1;8,4;7,4;8,1;-11,8;27,7;1379
2023-04-04 16:00:00;8,1;102198;48;0,0031;0,0;1,3;49;3,2;0,95;0,83;130;0;nan;23,8;24,9;26,9;26,9;10,2;8,8;7,7;8,0;-11,8;27,7;1379
2023-04-04 17:00:00;6,5;102170;56;0,0033;0,0;0,4;332;0,9;-0,2;0,36;28;0;nan;23,7;24,8;26,9;26,9;10,1;9,1;7,9;8,0;-11,8;27,7;1379
2023-04-04 18:00:00;4,8;102160;63;0,0033;0,0;0,3;311;0,6;-0,2;0,18;2;0;nan;23,7;24,8;26,9;26,9;9,8;9,2;8,1;8,0;-11,8;27,9;1376
2023-04-04 19:00:00;3,5;102184;66;0,0031;0,0;0,3;279;0,5;-0,23;0,04;0;0;nan;23,7;24,8;26,8;26,9;9,3;9,1;8,2;8,0;-11,8;28,2;1372
2023-04-04 20:00:00;3,0;102178;71;0,0033;0,0;0,3;297;0,7;-0,29;0,15;0;0;nan;23,6;24,7;26,8;26,9;8,8;9,0;8,3;8,0;-11,8;28,5;1368
2023-04-04 21:00:00;3,3;102167;69;0,0032;0,0;0,4;273;0,7;-0,35;0,02;0;0;nan;23,6;24,7;26,8;26,9;8,4;8,8;8,4;8,0;-11,8;28,8;1364
2023-04-04 22:00:00;2,4;102143;72;0,0032;0,0;0,5;166;1,3;0,0;-0,01;0;0;nan;23,6;24,7;26,7;26,9;8,0;8,6;8,4;8,1;-11,8;28,4;1369
2023-04-04 23:00:00;1,8;102130;77;0,0033;0,0;0,4;355;0,7;-0,03;0,33;0;0;nan;23,6;24,6;26,7;26,8;7,6;8,3;8,4;8,1;-11,8;28,3;1370
2023-04-05 00:00:00;0,5;102100;87;0,0034;0,0;0,5;321;0,7;-0,28;0,35;0;0;nan;23,5;24,6;26,7;26,8;7,2;8,1;8,3;8,1;-11,8;28,6;1367
2023-04-05 01:00:00;-0,6;102087;89;0,0032;0,0;0,4;328;0,6;-0,16;0,25;0;0;nan;23,5;24,6;26,6;26,8;6,9;7,8;8,2;8,1;-11,8;28,8;1364
2023-04-05 02:00:00;-1,4;102055;90;0,003;0,0;0,5;302;0,8;-0,36;0,22;0;0;nan;23,5;24,5;26,6;26,8;6,5;7,6;8,1;8,1;-11,8;28,8;1364
2023-04-05 03:00:00;-2,0;102043;90;0,0029;0,0;0,4;308;0,7;-0,31;0,24;0;0;nan;23,5;24,5;26,6;26,8;6,1;7,3;8,0;8,2;-11,9;28,9;1363
2023-04-05 04:00:00;-2,0;102035;90;0,0029;0,0;0,4;322;0,8;-0,26;0,34;0;0;nan;23,5;24,5;26,5;26,8;5,7;7,0;7,9;8,2;-11,9;28,5;1368
2023-04-05 05:00:00;-1,8;102030;93;0,003;0,0;0,4;322;0,9;-0,24;0,3;26;0;nan;23,5;24,4;26,5;26,8;5,4;6,8;7,8;8,2;-11,9;28,6;1367
2023-04-05 06:00:00;0,6;101983;96;0,0038;0,0;1,1;74;2,3;1,0;0,29;153;0;nan;23,4;24,4;26,5;26,8;5,1;6,5;7,7;8,2;-11,9;28,7;1365
2023-04-05 07:00:00;2,9;101943;84;0,0039;0,0;1,5;69;2,9;1,34;0,52;275;0;nan;23,4;24,4;26,4;26,8;4,9;6,3;7,5;8,1;-11,9;28,8;1364
2023-04-05 08:00:00;5,4;101922;72;0,0039;0,0;1,8;59;3,7;1,49;0,88;419;0;nan;23,4;24,4;26,4;26,8;5,1;6,1;7,4;8,1;-11,9;28,9;1363
2023-04-05 09:00:00;6,7;101887;61;0,0036;0,0;1,6;25;3,8;0,69;1,45;548;0;nan;23,3;24,3;26,4;26,8;5,5;6,1;7,3;8,1;-11,9;28,6;1366
2023-04-05 10:00:00;7,4;101867;57;0,0036;0,0;1,7;351;3,8;-0,11;0,73;618;0;nan;23,2;24,3;26,4;26,8;6,3;6,3;7,2;8,1;-11,9;28,6;1367
2023-04-05 11:00:00;8,3;101795;54;0,0036;0,0;1,8;126;5,0;1,38;-1,01;653;0;nan;23,1;24,2;26,3;26,8;7,3;6,6;7,2;8,1;-12,0;28,6;1367
2023-04-05 12:00:00;9,1;101747;50;0,0035;0,0;2,0;116;4,4;1,64;-0,79;642;0;nan;23,0;24,2;26,3;26,7;8,5;7,2;7,2;8,0;-11,9;28,2;1371
2023-04-05 13:00:00;9,6;101697;48;0,0035;0,0;1,8;254;4,1;-0,52;-0,15;586;0;nan;22,9;24,2;26,3;26,7;9,7;7,8;7,3;8,0;-12,0;28,6;1367
2023-04-05 14:00:00;9,9;101643;46;0,0035;0,0;2,0;111;3,7;1,47;-0,58;503;0;nan;22,8;24,1;26,2;26,7;10,5;8,5;7,5;8,0;-12,0;28,4;1369
2023-04-05 15:00:00;10,2;101597;44;0,0033;0,0;1,1;75;2,7;0,99;0,27;387;0;nan;22,8;24,1;26,2;26,7;11,1;9,1;7,7;8,0;-12,0;28,4;1369
2023-04-05 16:00:00;10,4;101560;41;0,0031;0,0;0,9;334;2,1;-0,25;0,51;204;0;nan;22,7;24,0;26,2;26,7;11,3;9,5;8,0;8,0;-12,0;28,3;1370
2023-04-05 17:00:00;9,5;101547;46;0,0033;0,0;1,0;360;2,6;-0,0;0,96;66;0;nan;22,7;24,0;26,1;26,7;11,2;9,8;8,2;7,9;-12,0;27,8;1378
2023-04-05 18:00:00;6,8;101578;55;0,0033;0,0;0,3;311;0,8;-0,23;0,2;3;0;nan;22,7;23,9;26,1;26,7;10,8;9,9;8,4;8,0;-12,0;27,7;1378
2023-04-05 19:00:00;3,7;101613;69;0,0034;0,0;0,4;332;0,7;-0,15;0,29;0;0;nan;22,6;23,9;26,1;26,7;10,2;9,8;8,6;8,0;-12,0;27,6;1380
2023-04-05 20:00:00;2,2;101617;77;0,0034;0,0;0,4;330;0,7;-0,19;0,33;0;0;nan;22,6;23,9;26,1;26,7;9,6;9,7;8,7;8,0;-12,0;27,3;1383
2023-04-05 21:00:00;1,0;101590;82;0,0033;0,0;0,5;328;0,9;-0,27;0,43;0;0;nan;22,6;23,8;26,0;26,7;9,0;9,4;8,7;8,0;-12,0;27,2;1386
2023-04-05 22:00:00;0,0;101580;85;0,0032;0,0;0,6;333;0,8;-0,26;0,49;0;0;nan;22,6;23,8;26,0;26,7;8,5;9,1;8,8;8,1;-12,0;27,3;1384
2023-04-05 23:00:00;-1,0;101532;88;0,0031;0,0;0,5;300;0,6;-0,39;0,22;0;0;nan;22,6;23,8;26,0;26,7;8,0;8,8;8,7;8,1;-12,0;27,5;1381
2023-04-06 00:00:00;-1,5;101507;88;0,003;0,0;0,5;311;0,6;-0,35;0,3;0;0;nan;22,6;23,8;26,0;26,7;7,5;8,5;8,6;8,1;-12,0;27,3;1384
2023-04-06 01:00:00;-1,7;101455;89;0,003;0,0;0,5;316;0,9;-0,34;0,34;0;0;nan;22,5;23,8;25,9;26,7;7,1;8,2;8,6;8,1;-12,0;27,1;1387
2023-04-06 02:00:00;-2,2;101427;91;0,0029;0,0;0,5;309;0,8;-0,35;0,28;0;0;nan;22,5;23,7;25,9;26,7;6,7;7,9;8,4;8,2;-12,0;27,0;1388
2023-04-06 03:00:00;-2,3;101420;90;0,0029;0,0;0,3;315;0,6;-0,2;0,2;0;0;nan;22,5;23,7;25,9;26,6;6,3;7,6;8,3;8,2;-12,1;26,9;1389
2023-04-06 04:00:00;-2,5;101418;91;0,0028;0,0;0,4;312;0,8;-0,26;0,23;1;0;nan;22,5;23,7;25,8;26,6;5,9;7,3;8,2;8,2;-12,0;27,4;1383
2023-04-06 05:00:00;-2,2;101388;94;0,003;0,0;0,2;281;0,5;-0,24;0,05;32;0;nan;22,5;23,7;25,8;26,6;5,6;7,0;8,0;8,2;-12,1;27,2;1386
2023-04-06 06:00:00;-0,5;101353;100;0,0036;0,0;0,4;330;0,8;-0,21;0,35;139;0;nan;22,5;23,6;25,8;26,6;5,3;6,7;7,9;8,2;-12,1;27,0;1388
2023-04-06 07:00:00;3,3;101303;94;0,0045;0,02;0,6;63;1,7;0,53;0,26;256;0;nan;22,5;23,6;25,8;26,6;5,2;6,5;7,7;8,2;-12,1;27,4;1383
2023-04-06 08:00:00;7,9;101255;66;0,0043;0,0;1,9;157;3,5;0,72;-1,74;403;0;nan;22,4;23,6;25,8;26,6;5,3;6,3;7,6;8,2;-12,1;27,5;1381
2023-04-06 09:00:00;9,9;101245;54;0,0041;0,0;2,4;162;4,7;0,73;-2,32;412;0;nan;22,4;23,6;25,7;26,6;6,0;6,3;7,5;8,2;-12,1;27,4;1382
2023-04-06 10:00:00;10,9;101220;50;0,004;0,0;2,4;164;5,7;0,66;-2,28;437;0;nan;22,3;23,5;25,7;26,6;6,9;6,6;7,4;8,1;-12,1;27,8;1377
2023-04-06 11:00:00;12,0;101180;47;0,0041;0,0;2,6;192;5,4;-0,5;-2,41;458;0;nan;22,2;23,5;25,7;26,6;7,8;6,9;7,3;8,1;-12,1;27,9;1376
2023-04-06 12:00:00;12,6;101163;47;0,0043;0,0;2,4;230;5,5;-1,81;-1,51;459;0;nan;22,1;23,5;25,7;26,6;8,6;7,4;7,4;8,1;-12,1;28,5;1368
2023-04-06 13:00:00;12,0;101163;50;0,0043;0,0;2,7;193;7,3;-0,6;-2,65;256;0;nan;22,0;23,4;25,6;26,6;9,3;7,9;7,5;8,0;-12,2;28,4;1369
2023-04-06 14:00:00;11,0;101158;56;0,0045;0,0;2,3;198;5,9;-0,72;-2,16;138;0;nan;22,0;23,4;25,6;26,6;9,7;8,3;7,6;8,0;-12,1;28,8;1364
2023-04-06 15:00:00;10,1;101133;65;0,005;0,0;1,9;188;4,7;-0,28;-1,87;63;0;nan;21,9;23,3;25,6;26,6;9,8;8,6;7,8;8,0;-12,2;29,0;1361
2023-04-06 16:00:00;9,3;101137;76;0,0055;0,35;2,4;183;5,3;-0,14;-2,41;28;0;nan;21,9;23,3;25,6;26,6;9,8;8,8;7,9;8,0;-12,2;29,5;1355
2023-04-06 17:00:00;7,7;101168;87;0,0056;1,26;3,2;175;5,8;0,3;-3,16;10;0;nan;21,9;23,3;25,5;26,6;9,6;8,9;8,1;8,0;-12,2;30,1;1348
2023-04-06 18:00:00;7,3;101150;90;0,0057;1,25;3,2;157;6,2;1,24;-2,94;1;0;nan;21,9;23,3;25,5;26,6;9,4;9,0;8,2;8,0;-12,2;30,4;1345
2023-04-06 19:00:00;7,4;101140;91;0,0057;0,88;4,0;151;7,4;1,95;-3,53;0;0;nan;21,9;23,2;25,5;26,6;9,2;8,9;8,3;8,0;-12,2;30,5;1343
2023-04-06 20:00:00;7,1;101133;94;0,0058;0,07;2,3;161;4,9;0,73;-2,16;0;0;nan;21,9;23,2;25,5;26,6;9,0;8,9;8,3;8,0;-12,2;31,0;1338
2023-04-06 21:00:00;7,0;101097;94;0,0058;0,02;2,7;152;6,1;1,27;-2,34;0;0;nan;22,0;23,2;25,4;26,6;8,8;8,8;8,3;8,0;-12,2;30,9;1338
2023-04-06 22:00:00;7,1;101052;95;0,0059;0,96;2,9;140;6,1;1,82;-2,19;0;0;nan;22,0;23,2;25,4;26,5;8,7;8,7;8,3;8,0;-12,2;31,5;1331
2023-04-06 23:00:00;7,3;101034;95;0,006;0,24;2,6;140;5,3;1,71;-2,0;0;0;nan;22,1;23,2;25,4;26,5;8,6;8,6;8,3;8,0;-12,3;31,7;1330
2023-04-07 00:00:00;7,3;101027;96;0,0061;0,13;1,3;140;2,5;0,86;-1,03;0;0;nan;22,2;23,2;25,4;26,5;8,5;8,5;8,3;8,0;-12,2;31,8;1328
2023-04-07 01:00:00;7,3;100997;97;0,0061;1,11;1,2;151;2,2;0,56;-1,03;0;0;nan;22,2;23,2;25,4;26,5;8,4;8,4;8,3;8,1;-12,2;32,0;1326
2023-04-07 02:00:00;7,2;100984;98;0,0062;0,09;0,5;110;1,0;0,44;-0,16;0;0;nan;22,4;23,2;25,3;26,5;8,3;8,4;8,3;8,1;-12,2;32,6;1319
2023-04-07 03:00:00;7,2;100997;99;0,0062;0,14;0,6;349;0,9;-0,11;0,54;0;0;nan;22,5;23,2;25,3;26,5;8,3;8,3;8,3;8,1;-12,3;33,0;1315
2023-04-07 04:00:00;7,2;101020;99;0,0062;0,76;0,9;324;1,5;-0,5;0,7;0;0;nan;22,7;23,2;25,3;26,5;8,2;8,3;8,2;8,1;-12,3;32,9;1317
2023-04-07 05:00:00;7,1;101060;99;0,0062;0,5;0,8;328;1,6;-0,44;0,69;3;0;nan;22,9;23,2;25,3;26,5;8,2;8,3;8,2;8,1;-12,3;33,7;1308
2023-04-07 06:00:00;7,2;101106;100;0,0062;0,08;0,8;326;1,7;-0,46;0,69;22;0;nan;23,1;23,3;25,3;26,5;8,2;8,2;8,2;8,1;-12,3;33,9;1306
2023-04-07 07:00:00;7,4;101147;100;0,0063;0,06;1,3;329;2,6;-0,67;1,1;56;0;nan;23,4;23,3;25,3;26,5;8,2;8,2;8,2;8,1;-12,3;33,5;1310
2023-04-07 08:00:00;7,6;101195;100;0,0065;0,12;1,3;330;2,5;-0,65;1,14;79;0;nan;23,7;23,4;25,3;26,5;8,3;8,2;8,2;8,1;-12,3;33,4;1312
2023-04-07 09:00:00;8,2;101246;100;0,0067;0,12;1,5;338;3,0;-0,57;1,43;69;0;nan;23,8;23,5;25,3;26,5;8,4;8,2;8,2;8,1;-12,3;33,6;1309
2023-04-07 10:00:00;8,5;101270;99;0,0068;0,15;1,5;350;2,9;-0,28;1,5;80;0;nan;24,0;23,6;25,3;26,5;8,6;8,3;8,2;8,1;-12,3;33,5;1310
2023-04-07 11:00:00;8,4;101310;99;0,0067;0,33;1,2;38;2,8;0,71;0,92;101;0;nan;24,1;23,7;25,3;26,5;8,9;8,4;8,2;8,1;-12,3;34,2;1303
2023-04-07 12:00:00;8,6;101348;98;0,0067;0,46;1,5;59;3,0;1,24;0,76;111;0;nan;24,2;23,8;25,3;26,5;9,1;8,5;8,2;8,1;-12,3;33,9;1306
2023-04-07 13:00:00;8,5;101400;97;0,0066;0,16;1,4;68;2,9;1,27;0,5;84;0;nan;24,3;23,9;25,3;26,5;9,3;8,6;8,2;8,1;-12,3;34,0;1305
2023-04-07 14:00:00;8,5;101420;97;0,0066;0,0;1,5;79;2,8;1,5;0,3;93;0;nan;24,4;24,0;25,3;26,5;9,5;8,8;8,3;8,1;-12,3;33,7;1309
2023-04-07 15:00:00;8,5;101454;96;0,0066;0,0;0,9;48;2,2;0,66;0,59;61;0;nan;24,5;24,1;25,3;26,5;9,6;8,9;8,3;8,1;-12,3;33,4;1312
2023-04-07 16:00:00;8,6;101473;96;0,0066;0,02;0,6;152;1,2;0,12;-0,22;47;0;nan;24,6;24,1;25,4;26,5;9,6;9,0;8,4;8,1;-12,3;33,3;1312
2023-04-07 17:00:00;8,7;101520;95;0,0066;0,0;0,6;0;1,0;0,0;0,35;35;0;nan;24,6;24,2;25,4;26,4;9,6;9,1;8,5;8,1;-12,3;33,7;1308
2023-04-07 18:00:00;8,4;101608;95;0,0065;0,0;0,6;306;1,0;-0,38;0,28;2;0;nan;24,6;24,3;25,5;26,4;9,6;9,1;8,5;8,1;-12,3;33,9;1307
2023-04-07 19:00:00;7,9;101713;97;0,0064;0,0;0,5;276;0,8;-0,41;0,04;0;0;nan;24,7;24,3;25,5;26,4;9,5;9,1;8,6;8,1;-12,2;34,2;1303
2023-04-07 20:00:00;7,5;101750;98;0,0062;0,0;0,5;272;0,9;-0,54;0,02;0;0;nan;24,7;24,4;25,5;26,4;9,4;9,1;8,6;8,1;-12,2;34,0;1305
2023-04-07 21:00:00;5,8;101778;98;0,0056;0,02;0,4;297;0,7;-0,38;0,2;0;0;nan;24,7;24,4;25,6;26,4;9,2;9,1;8,6;8,2;-12,2;34,0;1305
2023-04-07 22:00:00;4,5;101793;98;0,005;0,0;0,4;265;0,6;-0,42;-0,04;0;0;nan;24,7;24,4;25,6;26,4;8,8;9,0;8,6;8,1;-12,2;33,1;1314
2023-04-07 23:00:00;3,8;101828;98;0,0048;0,02;0,4;289;0,6;-0,31;0,11;0;0;nan;24,7;24,5;25,6;26,4;8,6;8,8;8,6;8,2;-12,2;32,9;1316
2023-04-08 00:00:00;2,8;101868;99;0,0045;0,06;0,4;284;0,9;-0,21;0,05;0;0;nan;24,6;24,5;25,6;26,4;8,3;8,7;8,6;8,2;-12,2;32,8;1317
2023-04-08 01:00:00;2,3;101910;99;0,0044;0,04;0,6;289;1,3;-0,54;0,19;0;0;nan;24,6;24,5;25,7;26,4;8,0;8,5;8,6;8,2;-12,2;33,2;1313
2023-04-08 02:00:00;1,4;101915;100;0,0041;0,04;0,4;316;0,8;-0,3;0,31;0;0;nan;24,6;24,5;25,7;26,4;7,7;8,3;8,5;8,2;-12,2;32,8;1317
2023-04-08 03:00:00;0,5;101935;98;0,0038;0,02;0,4;294;0,8;-0,39;0,17;0;0;nan;24,6;24,5;25,7;26,4;7,5;8,1;8,5;8,2;-12,2;32,9;1317
2023-04-08 04:00:00;-0,2;101962;98;0,0036;0,0;0,6;277;1,0;-0,61;0,07;0;0;nan;24,6;24,5;25,7;26,4;7,2;8,0;8,4;8,2;-12,2;32,7;1319
2023-04-08 05:00:00;0,1;101995;97;0,0037;0,02;0,5;286;0,9;-0,48;0,14;15;0;nan;24,6;24,5;25,7;26,4;6,9;7,8;8,3;8,2;-12,2;31,8;1328
2023-04-08 06:00:00;1,7;102047;100;0,0042;0,0;0,5;297;0,9;-0,4;0,2;55;0;nan;24,6;24,5;25,7;26,4;6,7;7,6;8,2;8,2;-12,2;31,8;1329
2023-04-08 07:00:00;3,6;102073;100;0,0048;0,0;0,6;75;1,5;0,27;0,07;138;0;nan;24,5;24,5;25,7;26,4;6,7;7,4;8,1;8,2;-12,2;31,9;1328
2023-04-08 08:00:00;6,0;102113;100;0,0057;0,0;1,3;102;2,7;1,21;-0,26;201;0;nan;24,5;24,5;25,8;26,4;6,9;7,3;8,0;8,2;-12,2;32,2;1324
2023-04-08 09:00:00;7,3;102146;96;0,006;0,0;2,0;83;3,7;1,95;0,22;150;0;nan;24,4;24,5;25,8;26,4;7,3;7,4;7,9;8,2;-12,2;32,0;1326
2023-04-08 10:00:00;7,6;102157;93;0,0059;0,0;1,5;84;3,2;1,5;0,16;196;0;nan;24,4;24,5;25,8;26,4;7,8;7,5;7,9;8,2;-12,2;32,2;1324
2023-04-08 11:00:00;8,3;102132;95;0,0063;0,0;1,7;88;3,7;1,72;0,07;327;0;nan;24,3;24,5;25,8;26,4;8,2;7,7;7,9;8,2;-12,2;31,8;1328